TOURFACTS.DK  
Stats and Facts from Tour de France.

Tour de France 2019 starts in 320 days
  Riders   Stages   Teams   Summits   Yearly  


 
Search by year

After 2018 - Stage 21:
 15000 starters.
  5165 different riders.
  638 teams.
  2253 stages.
  456 restdays.
  442940.60 km.
  5684 abandonnees.


Top 3
GC
Geraint Thomas83:17:13
Tom Dumoulin83:19:04
Christopher Froome83:19:37
Climb
Julian Alaphilippe170 pt.
Warren Barguil91 pt.
Rafal Majka76 pt.
Sprint
Peter Sagan477 pt.
Alexander Kristoff246 pt.
Arnaud Démare203 pt.
Youth
Pierre-Roger Latou..83:39:26
Egan Bernal83:45:05
Guillaume Martin84:01:31
Facts from Tour de France 2015
  |   Stages.  |   Stage winners.  |   Days in yellow  |   Average speed.  |   Route.  |   Teams.  |   All riders.  |   Rookies.  |  

  |   Withdrawls.  |   GC.  |   Polka  |   Green  |   White  |   Summits. (In tour)  |   Miscellaneous.  |  

Stage 14 on 18 - 07 - 2015
         Owning:    Christopher Froome      Christopher Froome      Peter Sagan      Nairo Quintana  

Pick a stage:  1 2 3 4 5 6 7 8 9 10 11 12 13 14 15 16 17 18 19 20 21
  RodezMende | Dist: 178.50 km.
Cat: 4Côte de Pont-de-SalarsPOLBartosz Huzarski1 points 
Cat: 2Côte de SauveterreFRAMatthieu Ladagnous5 points 
Cat: 4Côte de ChabritsSLOKristjan Koren1 points 
Cat: 2Côte de Croix NeuveFRAThibaut Pinot5 points 

Average speed for all riders in stage:  38,919 km./hr.
    Place:Name:Team:Time:Km/h:
1
ENGStephen CummingsZAFMTN - Qhubeka P/B Samsung04:23:43  +  00:00:00=40,612 
2
FRAThibaut PinotFRAFDJ04:23:45  +  00:00:02=40,607 
3
FRARomain BardetFRAAg2r La Mondiale04:23:46  +  00:00:03=40,604 
44 COLRigoberto UránBELEtixx - Quick Step04:24:03  +  00:00:20=40,561 
55 SVKPeter SaganRUSTinkoff Saxo04:24:12  +  00:00:29=40,537 
66 FRACyril GautierFRATeam Europcar04:24:15  +  00:00:32=40,530 
77 ESPRubén PlazaITALampre-Merida04:24:15  +  00:00:32=40,530 
88 LUXBob JungelsUSATrek Factory Racing04:24:15  +  00:00:32=40,530 
99 ESPJonathan CastroviejoESPMovistar Team04:24:15  +  00:00:32=40,530 
1010 ENGSimon YatesAUSOrica - GreenEDGE04:24:16  +  00:00:33=40,527 
1111 BELJan BakelantsFRAAg2r La Mondiale04:24:50  +  00:01:07=40,441 
1212 COLJarlinson Pantano GomezCHEIAM Cycling04:24:53  +  00:01:10=40,433 
1313 FRAPierre-Luc PérichonFRABretagne - Séché Environnement04:25:43  +  00:02:00=40,306 
1414 SLOKristjan KorenUSATeam Cannondale - Garmin04:25:55  +  00:02:12=40,276 
1515 NEDKoen De KortDEUTeam Giant Alpecin04:25:55  +  00:02:12=40,276 
1616 BELGreg Van AvermaetUSABMC Racing Team04:25:55  +  00:02:12=40,276 
1717 UKRAndriy GrivkoKAZAstana Pro Team04:26:26  +  00:02:43=40,198 
1818 POLMichal GolasBELEtixx - Quick Step04:27:08  +  00:03:25=40,092 
1919 FRAJérémy RoyFRAFDJ04:27:08  +  00:03:25=40,092 
2020 KENChristopher FroomeGBRSky Procycling04:27:58  +  00:04:15=39,968 
2121 COLNairo QuintanaESPMovistar Team04:27:59  +  00:04:16=39,965 
2222 ESPAlejandro ValverdeESPMovistar Team04:28:02  +  00:04:19=39,958 
2323 ESPAlberto ContadorRUSTinkoff Saxo04:28:17  +  00:04:34=39,920 
2424 ITAVincenzo NibaliKAZAstana Pro Team04:28:28  +  00:04:45=39,893 
2525 USATejay Van GarderenUSABMC Racing Team04:28:38  +  00:04:55=39,868 
2626 NEDRobert GesinkNLDTeam Lotto NL - Jumbo04:28:49  +  00:05:06=39,841 
2727 FRATony GallopinBELLotto Soudal04:28:49  +  00:05:06=39,841 
2828 FRAPierre RollandFRATeam Europcar04:28:49  +  00:05:06=39,841 
2929 NEDBauke MollemaUSATrek Factory Racing04:28:49  +  00:05:06=39,841 
3030 WALGeraint ThomasGBRSky Procycling04:28:49  +  00:05:06=39,841 
3131 SUISteve MorabitoFRAFDJ04:28:49  +  00:05:06=39,841 
3232 FRAMatthieu LadagnousFRAFDJ04:28:49  +  00:05:06=39,841 
3333 ITAMichele ScarponiKAZAstana Pro Team04:28:49  +  00:05:06=39,841 
3434 ESPSamuel SanchezUSABMC Racing Team04:29:05  +  00:05:22=39,802 
3535 FRAWarren BarguilDEUTeam Giant Alpecin04:29:08  +  00:05:25=39,794 
3636 URSTanel KangertKAZAstana Pro Team04:29:08  +  00:05:25=39,794 
3737 USAAndrew TalanskyUSATeam Cannondale - Garmin04:30:09  +  00:06:26=39,645 
3838 FRAAlexis VuillermozFRAAg2r La Mondiale04:30:09  +  00:06:26=39,645 
3939 ERIDaniel TeklehaimanotZAFMTN - Qhubeka P/B Samsung04:30:09  +  00:06:26=39,645 
4040 ESPDaniel NavarroFRACofidis – Solutions Crédits04:30:09  +  00:06:26=39,645 
4141 ESPLuis Angel MateFRACofidis – Solutions Crédits04:30:09  +  00:06:26=39,645 
4242 NEDSteven KruijswijkNLDTeam Lotto NL - Jumbo04:30:09  +  00:06:26=39,645 
4343 FRAMickaël CherelFRAAg2r La Mondiale04:30:33  +  00:06:50=39,586 
4444 CZERoman KreuzigerRUSTinkoff Saxo04:31:04  +  00:07:21=39,511 
4545 CZEJan BártaDEUBora-Argon 1804:31:04  +  00:07:21=39,511 
4646 FRABrice FeilluFRABretagne - Séché Environnement04:31:04  +  00:07:21=39,511 
4747 DENLars BakBELLotto Soudal04:31:04  +  00:07:21=39,511 
4848 NEDStef ClementCHEIAM Cycling04:31:16  +  00:07:33=39,481 
4949 FRANicolas RocheGBRSky Procycling04:31:16  +  00:07:33=39,481 
5050 ITADamiano CarusoUSABMC Racing Team04:31:41  +  00:07:58=39,421 
5151 BELSerge PauwelsZAFMTN - Qhubeka P/B Samsung04:31:41  +  00:07:58=39,421 
5252 ESPHaimar ZubeldiaUSATrek Factory Racing04:31:52  +  00:08:09=39,394 
5353 POLRafal MajkaRUSTinkoff Saxo04:32:15  +  00:08:32=39,339 
5454 FRAChristophe RiblonFRAAg2r La Mondiale04:32:27  +  00:08:44=39,310 
5555 FRASylvain ChavanelCHEIAM Cycling04:32:27  +  00:08:44=39,310 
5656 NEDLaurens ten DamNLDTeam Lotto NL - Jumbo04:32:27  +  00:08:44=39,310 
5757 FRAPierrick FédrigoFRABretagne - Séché Environnement04:32:54  +  00:09:11=39,245 
5858 SUIDanilo WyssUSABMC Racing Team04:33:27  +  00:09:44=39,166 
5959 PORTiago PintoRUSTeam Katusha04:33:27  +  00:09:44=39,166 
6060 SUIMartin ElmigerCHEIAM Cycling04:33:27  +  00:09:44=39,166 
6161 SUIMichael SchärUSABMC Racing Team04:33:27  +  00:09:44=39,166 
6262 SUIMarcel WyssCHEIAM Cycling04:33:27  +  00:09:44=39,166 
6363 AUSMichael RogersRUSTinkoff Saxo04:33:27  +  00:09:44=39,166 
6464 GERSimon GeschkeDEUTeam Giant Alpecin04:33:27  +  00:09:44=39,166 
6565 NEDWilco KeldermanNLDTeam Lotto NL - Jumbo04:33:27  +  00:09:44=39,166 
6666 GERPaul MartensNLDTeam Lotto NL - Jumbo04:33:27  +  00:09:44=39,166 
6767 AUSAdam HansenBELLotto Soudal04:33:27  +  00:09:44=39,166 
6868 SUIReto HollensteinCHEIAM Cycling04:33:27  +  00:09:44=39,166 
6969 SUIJakob FuglsangKAZAstana Pro Team04:33:27  +  00:09:44=39,166 
7070 NEDBram TankinkNLDTeam Lotto NL - Jumbo04:33:52  +  00:10:09=39,107 
7171 FRANicolas EdetFRACofidis – Solutions Crédits04:33:52  +  00:10:09=39,107 
7272 FRARomain SicardFRATeam Europcar04:34:06  +  00:10:23=39,073 
7373 ESPRafael Valls FerriITALampre-Merida04:34:43  +  00:11:00=38,986 
7474 HRVKristijan DurasekITALampre-Merida04:34:43  +  00:11:00=38,986 
7575 ENGAdam YatesAUSOrica - GreenEDGE04:34:43  +  00:11:00=38,986 
7676 FRAJérôme CoppelCHEIAM Cycling04:35:14  +  00:11:31=38,912 
7777 FRAArmindo FonsecaFRABretagne - Séché Environnement04:35:25  +  00:11:42=38,887 
7878 FRAAnthony DelaplaceFRABretagne - Séché Environnement04:35:25  +  00:11:42=38,887 
7979 BELThomas De GendtBELLotto Soudal04:35:38  +  00:11:55=38,856 
8080 CZELeopold KönigGBRSky Procycling04:35:55  +  00:12:12=38,816 
8181 NEDWout PoelsGBRSky Procycling04:36:02  +  00:12:19=38,800 
8282 ERIMerhawi GhebremedhinZAFMTN - Qhubeka P/B Samsung04:36:22  +  00:12:39=38,753 
8383 GEREmanuel BuchmannDEUBora-Argon 1804:36:22  +  00:12:39=38,753 
8484 BELJens DebusschereBELLotto Soudal04:36:22  +  00:12:39=38,753 
8585 FRAPerrig QuemeneurFRATeam Europcar04:36:22  +  00:12:39=38,753 
8686 ESPJoaquim RodriguezRUSTeam Katusha04:36:22  +  00:12:39=38,753 
8787 ESPAlberto LosadaRUSTeam Katusha04:36:22  +  00:12:39=38,753 
8888 FRAJean-Christophe PeraudFRAAg2r La Mondiale04:36:22  +  00:12:39=38,753 
8989 NEDJos Van EmdenNLDTeam Lotto NL - Jumbo04:36:22  +  00:12:39=38,753 
9090 NEDRoy CurversDEUTeam Giant Alpecin04:36:22  +  00:12:39=38,753 
9191 ITAGiampaolo CarusoRUSTeam Katusha04:36:22  +  00:12:39=38,753 
9292 NEDLieuwe WestraKAZAstana Pro Team04:36:22  +  00:12:39=38,753 
9393 PORNelson OliveiraITALampre-Merida04:36:22  +  00:12:39=38,753 
9494 PORJosé João PimentaDEUBora-Argon 1804:36:22  +  00:12:39=38,753 
9595 ESPGorka Izaguirre InsaustiESPMovistar Team04:36:22  +  00:12:39=38,753 
9696 FRAAngelo TulikFRATeam Europcar04:36:26  +  00:12:43=38,744 
9797 SUIGregory RastUSATrek Factory Racing04:36:56  +  00:13:13=38,674 
9898 ESPMarkel IrizarUSATrek Factory Racing04:36:56  +  00:13:13=38,674 
9999 COLJulián ArredondoUSATrek Factory Racing04:36:56  +  00:13:13=38,674 
100100 BELStijn DevolderUSATrek Factory Racing04:36:56  +  00:13:13=38,674 
101101 AUSRohan DennisUSABMC Racing Team04:37:24  +  00:13:41=38,609 
102102 FRAFlorian SénéchalFRACofidis – Solutions Crédits04:37:30  +  00:13:47=38,595 
103103 ITAManuel QuinziatoUSABMC Racing Team04:37:30  +  00:13:47=38,595 
104104 COLWinner AnaconaESPMovistar Team04:37:32  +  00:13:49=38,590 
105105 FRAAlexandre GeniezFRAFDJ04:38:01  +  00:14:18=38,523 
106106 ENGIan StannardGBRSky Procycling04:38:01  +  00:14:18=38,523 
107107 AUSNathan HaasUSATeam Cannondale - Garmin04:38:55  +  00:15:12=38,399 
108108 AUSMichael MatthewsAUSOrica - GreenEDGE04:38:55  +  00:15:12=38,399 
109109 RSAJacques Janse Van RensburgZAFMTN - Qhubeka P/B Samsung04:38:55  +  00:15:12=38,399 
110110 ITAMatteo BonoITALampre-Merida04:38:55  +  00:15:12=38,399 
111111 ITAAdriano MaloriESPMovistar Team04:38:55  +  00:15:12=38,399 
112112 FRAArnaud GérardFRABretagne - Séché Environnement04:38:55  +  00:15:12=38,399 
113113 FRAFlorian VachonFRABretagne - Séché Environnement04:38:55  +  00:15:12=38,399 
114114 FRAThomas VoecklerFRATeam Europcar04:38:55  +  00:15:12=38,399 
115115 FRAJulien SimonFRACofidis – Solutions Crédits04:38:55  +  00:15:12=38,399 
116116 COLJosé SerpaITALampre-Merida04:38:55  +  00:15:12=38,399 
117117 RSAReinardt Janse Van RensburgZAFMTN - Qhubeka P/B Samsung04:38:55  +  00:15:12=38,399 
118118 AUTGeorg PreidlerDEUTeam Giant Alpecin04:38:55  +  00:15:12=38,399 
119119 FRAFrédéric BrunFRABretagne - Séché Environnement04:38:55  +  00:15:12=38,399 
120120 FRAGeoffrey SoupeFRACofidis – Solutions Crédits04:38:55  +  00:15:12=38,399 
121121 FRABenoit VaugrenardFRAFDJ04:38:55  +  00:15:12=38,399 
122122 AUSLuke DurbridgeAUSOrica - GreenEDGE04:38:55  +  00:15:12=38,399 
123123 FRAYohann GèneFRATeam Europcar04:38:55  +  00:15:12=38,399 
124124 CANRyder HesjedalUSATeam Cannondale - Garmin04:38:55  +  00:15:12=38,399 
125125 CANSvein TuftAUSOrica - GreenEDGE04:38:55  +  00:15:12=38,399 
126126 NEDPieter WeeningAUSOrica - GreenEDGE04:38:55  +  00:15:12=38,399 
127127 FRAArnaud DémareFRAFDJ04:38:55  +  00:15:12=38,399 
128128 ITAMatteo TosattoRUSTinkoff Saxo04:39:04  +  00:15:21=38,378 
129129 ITADaniel OssUSABMC Racing Team04:39:04  +  00:15:21=38,378 
130130 ITAFilippo PozzatoITALampre-Merida04:39:04  +  00:15:21=38,378 
131131 LUXLaurent DidierUSATrek Factory Racing04:39:08  +  00:15:25=38,369 
132132 FRABryan CoquardFRATeam Europcar04:39:35  +  00:15:52=38,307 
133133 FRADamien GaudinFRAAg2r La Mondiale04:39:35  +  00:15:52=38,307 
134134 CZEZdenek StybarBELEtixx - Quick Step04:39:54  +  00:16:11=38,264 
135135 BELJulien VermoteBELEtixx - Quick Step04:39:54  +  00:16:11=38,264 
136136 RSALouis MeintjesZAFMTN - Qhubeka P/B Samsung04:39:54  +  00:16:11=38,264 
137137 KAZDmitriy GruzdevKAZAstana Pro Team04:39:54  +  00:16:11=38,264 
138138 NEDTom LeezerNLDTeam Lotto NL - Jumbo04:39:54  +  00:16:11=38,264 
139139 BELKenneth VanbilsenFRACofidis – Solutions Crédits04:40:03  +  00:16:20=38,243 
140140 WALLuke RoweGBRSky Procycling04:40:03  +  00:16:20=38,243 
141141 NEDAlbert TimmerDEUTeam Giant Alpecin04:40:23  +  00:16:40=38,198 
142142 GERJohn DegenkolbDEUTeam Giant Alpecin04:40:23  +  00:16:40=38,198 
143143 FRAChristophe LaporteFRACofidis – Solutions Crédits04:40:23  +  00:16:40=38,198 
144144 ESPJosé Herrada LópezESPMovistar Team04:40:29  +  00:16:46=38,184 
145145 ITADavide CimolaiITALampre-Merida04:40:44  +  00:17:01=38,150 
146146 AUSMark RenshawBELEtixx - Quick Step04:40:57  +  00:17:14=38,121 
147147 IOMMark CavendishBELEtixx - Quick Step04:40:57  +  00:17:14=38,121 
148148 POLMichal KwiatkowskiBELEtixx - Quick Step04:42:29  +  00:18:46=37,914 
149149 ITAMatteo TrentinBELEtixx - Quick Step04:42:29  +  00:18:46=37,914 
150150 FRABryan NauleauFRATeam Europcar04:42:29  +  00:18:46=37,914 
151151 GERPaul VossDEUBora-Argon 1804:42:29  +  00:18:46=37,914 
152152 DENMichael ValgrenRUSTinkoff Saxo04:42:29  +  00:18:46=37,914 
153153 AUTMatthias BrändleCHEIAM Cycling04:42:31  +  00:18:48=37,909 
154154 NEDDylan Van BaarleUSATeam Cannondale - Garmin04:42:52  +  00:19:09=37,862 
155155 NEDSebastian LangeveldUSATeam Cannondale - Garmin04:42:52  +  00:19:09=37,862 
156156 AUSRichie PorteGBRSky Procycling04:42:52  +  00:19:09=37,862 
157157 FRASébastien ChavanelFRAFDJ04:42:52  +  00:19:09=37,862 
158158 ESPImanol ErvitiESPMovistar Team04:42:52  +  00:19:09=37,862 
159159 USATyler FarrarZAFMTN - Qhubeka P/B Samsung04:42:52  +  00:19:09=37,862 
160160 ENGDaniel MartinUSATeam Cannondale - Garmin04:42:52  +  00:19:09=37,862 
161161 AUTMarco HallerRUSTeam Katusha04:42:59  +  00:19:16=37,847 
162162 BELSep VanmarckeNLDTeam Lotto NL - Jumbo04:43:07  +  00:19:24=37,829 
163163 NORAlexander KristoffRUSTeam Katusha04:43:07  +  00:19:24=37,829 
164164 NOREdvald Boasson HagenZAFMTN - Qhubeka P/B Samsung04:43:07  +  00:19:24=37,829 
165165 ITAJacopo GuarnieriRUSTeam Katusha04:43:07  +  00:19:24=37,829 
166166 URSRamunas NavardauskasUSATeam Cannondale - Garmin04:43:07  +  00:19:24=37,829 
167167 GERAndré GreipelBELLotto Soudal04:43:07  +  00:19:24=37,829 
168168 GERMarcel SiebergBELLotto Soudal04:44:00  +  00:20:17=37,711 
169169 BELTim WellensBELLotto Soudal04:44:00  +  00:20:17=37,711 
170170 POLBartosz HuzarskiDEUBora-Argon 1804:44:00  +  00:20:17=37,711 
171171 BELSam BennettDEUBora-Argon 1804:44:00  +  00:20:17=37,711 
172172 IOMPeter KennaughGBRSky Procycling04:44:39  +  00:20:56=37,625 

Withdrawls: 3
 
Rider
Team
Reason
27  SUISteve MorabitoFRAFDJDid not finish
88  NEDRamon SinkeldamDEUTeam Giant AlpecinDid not finish
201  ARGEduardo SepulvedaFRABretagne - Séché EnvironnementDisqualified
Todays birthdays.

1878  Jean Novo
1883  Jules Chabas
1890  Ange Aubry
1893  Roger Marye
1913  Paul Maye
1914  Lucien Vlaemynck
1915  Alphonse Antoine
1932  Rolf Graf
1953  Julio Rubiano
1959  Jos Haex
1959  Gerard Veldscholten
1963  Pablo Moreno
1964  Juan Castillo
1977  Iban Mayo
1994  Fernando Gaviria